Regional Weather Roundup
Issued by NWS

Home | Current Version | Previous Version | Text Only | Print | Product List | Glossary Off
Versions: 1 2 3 4 5 6 7 8 9 10 11 12 13 14 15 16 17 18 19 20 21 22 23 24 25 26 27 28 29 30 31 32 33 34 35 36 37 38 39 40 41 42 43 44 45 46 47 48 49 50

000
ASUS43 KIND 211059
RWRIN

WEATHER ROUNDUP FOR INDIANA
NATIONAL WEATHER SERVICE INDIANAPOLIS IN
600 AM EST WED FEB 21 2018

NOTE: "FAIR" INDICATES FEW OR NO CLOUDS BELOW 12,000 FEET WITH NO
SIGNIFICANT WEATHER AND/OR OBSTRUCTIONS TO VISIBILITY.

* - STATION DOES NOT REPORT WEATHER SUCH AS PRECIPITATION OR FOG.

+ - STATION NOT QUALITY CONTROLLED BY THE NATIONAL WEATHER SERVICE.
    USE DATA WITH CAUTION...ESPECIALLY DEWPOINT AND RELATIVE
    HUMIDITY OBSERVATIONS.

INZ001>003-010>013-019-020-211200-
NORTHWEST INDIANA

CITY           SKY/WX    TMP DP  RH WIND       PRES   REMARKS
GARY /AIRPORT/ CLOUDY    32  32 100 NW12G23   30.34R WCI  23
MONTICELLO +   LGT RAIN  34  33  96 N10       30.26R WCI  26

$$

LMZ046-743>745-211200-
SOUTHERN LAKE MICHIGAN

STATION/POSITION TIME  TEMP    WIND        PRES    WAVE
                       AIR SEA DIR/SP/G            HT
                 (UTC) (F)     (DEG/KT/KT) (MB)    (FT)
BURNS HARBOR     1040   32     350/ 14/ 18 1027.4R
MICHIGAN CITY    1030   31     330/  8/  9   N/A

$$

INZ004-005-014>016-021>024-211200-
NORTH CENTRAL INDIANA

CITY           SKY/WX    TMP DP  RH WIND       PRES   REMARKS
GOSHEN         RAIN      34  31  88 NW9G18    30.25R WCI  27
PERU/GRISSOM   RAIN      37  37 100 N13       30.23S WCI  28
SOUTH BEND     FRZ RAIN  31  28  89 NW14      30.30R WCI  21
WARSAW +       RAIN      34  32  93 N9        30.25R WCI  26

$$

INZ006>009-017-018-025>027-211200-
NORTHEAST INDIANA

CITY           SKY/WX    TMP DP  RH WIND       PRES   REMARKS
AUBURN +       RAIN      37  36  93 NW14      30.23R WCI  29
FORT WAYNE     LGT RAIN  41  39  93 NW10      30.23R
KENDALLVILLE + RAIN      36  35  99 NW10      30.23R WCI  28

$$

INZ028-029-035-036-043>045-051>053-211200-
WEST CENTRAL INDIANA

CITY           SKY/WX    TMP DP  RH WIND       PRES   REMARKS
GREENCASTLE +  LGT RAIN  37  36  93 NW7       30.29R WCI  32
LAFAYETTE      LGT RAIN  36  35  96 N15       30.27R WCI  27
TERRE HAUTE    LGT RAIN  37  36  96 NW8       30.31R WCI  31

$$

INZ030>032-037>040-046>048-054>057-064-065-211200-
CENTRAL INDIANA

CITY           SKY/WX    TMP DP  RH WIND       PRES   REMARKS
GREENWOOD *+   CLOUDY    43 -46   2 N12G18    30.20F
INDIANAPOLIS   LGT RAIN  43  41  93 N10       30.21R
-EAGLE CREEK   LGT RAIN  43  40  89 N9        30.21R
KOKOMO +       LGT RAIN  37  36  96 N16       30.23R WCI  28
MT COMFORT *+  CLOUDY    43  43 100 N12       30.20F
SHELBYVILLE    LGT RAIN  48  45  89 N12       30.18R

$$

INZ033-034-041-042-049-050-058-059-211200-
EAST CENTRAL INDIANA

CITY           SKY/WX    TMP DP  RH WIND       PRES   REMARKS
MUNCIE         LGT RAIN  45  42  89 NW15      30.21R
RICHMOND +     DRIZZLE   54  54 100 N9        30.18R

$$

INZ060-061-067>069-081>083-085>088-211200-
SOUTHWEST INDIANA

CITY           SKY/WX    TMP DP  RH WIND       PRES   REMARKS
EVANSVILLE     HVY RAIN  44  44 100 NW8       30.26S FOG
HUNTINGBURG +  LGT RAIN  45  44  97 NW13      30.25R

$$

INZ062-063-066-070>080-084-089>092-211200-
SOUTH CENTRAL AND SOUTHEAST INDIANA

CITY           SKY/WX    TMP DP  RH WIND       PRES   REMARKS
BLOOMINGTON    RAIN      45  43  93 N7        30.23R FOG
FRENCH LICK *+ CLOUDY    46 N/A N/A W5        30.25R

$$




USA.gov is the U.S. government's official web portal to all federal, state and local government web resources and services.